Islip, NY

5:27 PM EDT on August 18, 2017 (GMT -0400)
Long Island Mac Arthur

Weather History for KISP - October, 2012

Change the Weather History Date:

Monday, October 29, 2012

  Actual Average Record
Temperature  
Mean Temperature 59 °F 50 °F  
Max Temperature 65 °F 59 °F 73 °F (2014)
Min Temperature 53 °F 42 °F 32 °F (2001)
Degree Days  
Heating Degree Days 6 15  
Month to date heating degree days 204 312  
Since 1 July heating degree days 257 389  
Cooling Degree Days 0 0  
Month to date cooling degree days 15 9  
Year to date cooling degree days 993 786  
Growing Degree Days 8 (Base 50)    
Moisture  
Dew Point 54 °F    
Average Humidity 82    
Maximum Humidity 97    
Minimum Humidity 67    
Precipitation  
Precipitation 0.70 in 0.11 in 1.83 in (2011)
Month to date precipitation 2.07 3.56  
Year to date precipitation 36.67 38.28  
Snow  
Snow 0.00 in 0.00 in 0.30 in (2011)
Month to date snowfall 0.0 0.0  
Since 1 July snowfall 0.0 0.0  
Snow Depth 0.00 in    
Sea Level Pressure  
Sea Level Pressure 29.02 in    
Wind  
Wind Speed 33 mph (ENE)    
Max Wind Speed 56 mph    
Max Gust Speed 90 mph    
Visibility 4 miles    
Events Rain    
T = Trace of Precipitation, MM = Missing Value Source: NWS Daily Summary

Daily Weather History Graph

Daily Weather History Graph

Search for Another Location

Airport or City:

Trip Planner

Search our weather history database for the weather conditions in past years. The results will help you decide how hot, cold, wet, or windy it might be!

Date:

Astronomy

Oct. 29, 2012 Rise Set
Actual Time 7:19 AM EDT 5:51 PM EDT
Civil Twilight 6:51 AM EDT 6:19 PM EDT
Nautical Twilight 6:19 AM EDT 6:52 PM EDT
Astronomical Twilight 5:47 AM EDT 7:24 PM EDT
Moon 5:41 PM EDT (10/29) 7:07 AM EDT (10/29)
Length of Visible Light 11h 28m
Length of Day
10h 31m
Full, 100% of the Moon is Illuminated
Oct 29
Full
Oct 29
Full
Nov 6
Last Quarter
Nov 13
New
Nov 20
First Quarter

Hourly Weather History & Observations

Time (EDT) Temp. Dew Point Humidity Pressure Visibility Wind Dir Wind Speed Gust Speed Precip Events Conditions
12:56 AM 54.0 °F 48.9 °F 83% 29.58 in 8.0 mi NE 24.2 mph 32.2 mph 0.00 in Rain Light Rain
1:45 AM 53.6 °F 50.0 °F 88% 29.56 in 4.0 mi NNE 20.7 mph 29.9 mph 0.00 in Rain Light Rain
1:56 AM 53.1 °F 50.0 °F 89% 29.55 in 4.0 mi NNE 19.6 mph 35.7 mph 0.01 in Rain Light Rain
2:31 AM 53.6 °F 50.0 °F 88% 29.53 in 9.0 mi NNE 17.3 mph 29.9 mph 0.00 in Rain Light Rain
2:43 AM 53.6 °F 50.0 °F 88% 29.52 in 6.0 mi NNE 20.7 mph 31.1 mph 0.00 in Rain Light Rain
2:56 AM 53.1 °F 50.0 °F 89% 29.51 in 4.0 mi NNE 19.6 mph 35.7 mph 0.00 in Rain Light Rain
3:56 AM 53.1 °F 51.1 °F 93% 29.46 in 4.0 mi NNE 17.3 mph 28.8 mph 0.02 in Rain Light Rain
4:32 AM 53.6 °F 51.8 °F 94% 29.42 in 4.0 mi NNE 26.5 mph 38.0 mph 0.01 in Rain Light Rain
4:56 AM 55.0 °F 51.1 °F 86% 29.41 in 9.0 mi NNE 26.5 mph 36.8 mph 0.01 in   Overcast
5:56 AM 55.0 °F 52.0 °F 89% 29.37 in 3.0 mi NNE 26.5 mph 35.7 mph 0.01 in Rain Light Rain
6:33 AM 55.4 °F 51.8 °F 88% 29.35 in 2.5 mi NNE 21.9 mph 35.7 mph 0.01 in Rain Light Rain
6:56 AM 55.0 °F 52.0 °F 89% 29.34 in 2.5 mi NNE 27.6 mph 36.8 mph 0.02 in Rain Light Rain
8:56 AM 55.9 °F 53.1 °F 90% 29.24 in 1.8 mi NNE 33.4 mph 47.2 mph 0.05 in Rain Light Rain
9:54 AM 57.2 °F 53.6 °F 88% 29.18 in 3.0 mi NE 29.9 mph 44.9 mph 0.03 in Rain Light Rain
9:56 AM 57.9 °F 54.0 °F 87% 29.19 in 3.0 mi NE 32.2 mph 41.4 mph 0.03 in Rain Light Rain
10:15 AM 57.2 °F 55.4 °F 94% 29.16 in 1.5 mi NE 28.8 mph 46.0 mph 0.01 in Rain Light Rain
10:56 AM 57.9 °F 55.0 °F 90% 29.10 in 1.5 mi NNE 36.8 mph 51.8 mph 0.03 in Rain Light Rain
11:56 AM 59.0 °F 55.0 °F 87% 29.03 in 1.0 mi NE 38.0 mph 52.9 mph 0.07 in Rain Rain
12:56 PM 59.0 °F 55.9 °F 90% 28.92 in 1.0 mi NE 39.1 mph 54.1 mph 0.09 in Rain Light Rain
1:56 PM 60.1 °F 57.0 °F 90% 28.82 in 1.0 mi NE 36.8 mph 58.7 mph 0.06 in Rain Rain
2:56 PM 61.0 °F 59.0 °F 93% 28.73 in 1.0 mi NE 36.8 mph 48.3 mph 0.10 in Rain Rain
3:20 PM 62.6 °F 60.8 °F 94% 28.70 in 0.8 mi NE 33.4 mph 55.2 mph 0.07 in Rain Rain
3:29 PM 62.6 °F 60.8 °F 94% 28.68 in 1.2 mi ENE 44.9 mph 64.4 mph 0.08 in Rain Light Rain
3:56 PM 63.0 °F 60.1 °F 90% 28.63 in 1.0 mi ENE 35.7 mph 58.7 mph 0.10 in Rain Light Rain
4:56 PM 64.0 °F 61.0 °F 90% 28.57 in 1.2 mi ENE 32.2 mph 50.6 mph 0.04 in Rain Light Rain
5:08 PM 64.4 °F 60.8 °F 88% 28.56 in 2.5 mi East 39.1 mph 58.7 mph 0.00 in Rain Light Rain
5:12 PM 64.4 °F 60.8 °F 88% 28.56 in 1.8 mi East 38.0 mph 58.7 mph 0.00 in Rain Light Rain
5:20 PM 62.6 °F 60.8 °F 94% 28.56 in 1.2 mi East 38.0 mph 63.3 mph 0.01 in Rain Light Rain
5:38 PM 64.4 °F 59.0 °F 83% 28.57 in 2.0 mi East 41.4 mph 66.7 mph 0.02 in Rain Light Rain
5:56 PM 63.0 °F 59.0 °F 87% 28.58 in 2.5 mi East 40.3 mph 69.0 mph 0.02 in Rain Rain
6:10 PM 62.6 °F 57.2 °F 82% 28.60 in 4.0 mi East 40.3 mph 81.7 mph 0.01 in Rain Light Rain
6:56 PM 62.1 °F 55.0 °F 78% 28.67 in 4.0 mi East 44.9 mph 77.1 mph 0.01 in Rain Light Rain
7:13 PM 62.6 °F 53.6 °F 72% 28.70 in 6.0 mi ESE 43.7 mph 64.4 mph 0.00 in   Haze
7:39 PM 62.6 °F 53.6 °F 72% 28.75 in 7.0 mi ESE 39.1 mph 64.4 mph 0.00 in   Overcast
8:56 PM 62.1 °F 53.1 °F 72% 28.85 in 8.0 mi ESE 39.1 mph 54.1 mph N/A   Overcast
9:56 PM 60.1 °F 52.0 °F 75% 28.92 in 10.0 mi SE 32.2 mph 56.4 mph N/A   Overcast
10:56 PM 59.0 °F 51.1 °F 75% 28.99 in 10.0 mi SSE 33.4 mph 49.5 mph 0.00 in   Overcast
11:04 PM 59.0 °F 50.0 °F 72% 29.00 in 10.0 mi SSE 34.5 mph 51.8 mph N/A   Overcast
11:56 PM 59.0 °F 48.9 °F 69% 29.05 in 10.0 mi SSE 29.9 mph 49.5 mph N/A   Overcast